Time,TemperatureF,DewpointF,PressureIn,WindDirection,WindDirectionDegrees,WindSpeedMPH,WindSpeedGustMPH,Humidity,HourlyPrecipIn,Conditions,Clouds,dailyrainin,SoftwareType,DateUTC
2013-11-12 08:39:00,29.1,21.2,30.23,SSW,193,0.0,0.0,72,0.00,,---,0.00,VWS V14.01,2013-11-12 15:39:00,
2013-11-12 08:44:00,28.9,21.1,30.23,SSW,193,0.0,0.0,72,0.00,,---,0.00,VWS V14.01,2013-11-12 15:44:00,
2013-11-12 08:49:00,28.9,21.1,30.23,SSW,193,0.0,0.0,72,0.00,,---,0.00,VWS V14.01,2013-11-12 15:49:00,
2013-11-12 08:53:00,28.9,21.1,30.23,SSW,193,0.0,0.0,72,0.00,,---,0.00,VWS V14.01,2013-11-12 15:53:00,
2013-11-12 08:58:00,28.9,21.1,30.23,SSW,193,0.0,0.0,72,0.00,,---,0.00,VWS V14.01,2013-11-12 15:58:00,
2013-11-12 09:03:00,29.1,21.2,30.23,SSW,193,0.0,0.0,72,0.00,,---,0.00,VWS V14.01,2013-11-12 16:03:00,
2013-11-12 09:08:00,29.7,21.8,30.23,SSW,193,0.0,0.0,72,0.00,,---,0.00,VWS V14.01,2013-11-12 16:08:00,
2013-11-12 09:13:00,30.0,22.1,30.23,SSW,193,0.0,0.0,72,0.00,,---,0.00,VWS V14.01,2013-11-12 16:13:00,
2013-11-12 09:18:00,30.4,22.5,30.23,SSW,193,0.0,0.0,72,0.00,,---,0.00,VWS V14.01,2013-11-12 16:18:00,
2013-11-12 09:23:00,30.6,22.6,30.23,SSW,193,0.0,0.0,72,0.00,,---,0.00,VWS V14.01,2013-11-12 16:23:00,
2013-11-12 09:28:00,31.1,23.1,30.23,SSW,193,0.0,0.0,72,0.00,,---,0.00,VWS V14.01,2013-11-12 16:28:00,
2013-11-12 09:33:00,31.6,23.7,30.23,SSW,193,0.0,0.0,72,0.00,,---,0.00,VWS V14.01,2013-11-12 16:33:00,
2013-11-12 09:38:00,32.0,24.0,30.23,SSW,193,0.0,0.0,72,0.00,,---,0.00,VWS V14.01,2013-11-12 16:38:00,
2013-11-12 09:43:00,32.2,24.2,30.23,SSW,193,0.0,0.0,72,0.00,,---,0.00,VWS V14.01,2013-11-12 16:43:00,
2013-11-12 09:48:00,32.2,24.2,30.23,SSW,193,0.0,0.0,72,0.00,,---,0.00,VWS V14.01,2013-11-12 16:48:00,
2013-11-12 09:53:00,32.5,24.5,30.23,SSW,193,0.0,0.0,72,0.00,,---,0.00,VWS V14.01,2013-11-12 16:53:00,
2013-11-12 09:58:00,32.5,24.5,30.23,SSW,193,0.0,0.0,72,0.00,,---,0.00,VWS V14.01,2013-11-12 16:58:00,
2013-11-12 10:03:00,32.5,24.5,30.23,SSW,193,0.0,0.0,72,0.00,,---,0.00,VWS V14.01,2013-11-12 17:03:00,
2013-11-12 10:08:00,32.4,24.4,30.23,SSW,193,0.0,0.0,72,0.00,,---,0.00,VWS V14.01,2013-11-12 17:08:00,
2013-11-12 10:13:00,32.4,24.4,30.23,SSW,193,0.0,0.0,72,0.00,,---,0.00,VWS V14.01,2013-11-12 17:13:00,
2013-11-12 10:18:00,32.5,24.5,30.23,SSW,193,0.0,0.0,72,0.00,,---,0.00,VWS V14.01,2013-11-12 17:18:00,
2013-11-12 10:23:00,32.5,24.5,30.23,SSW,193,0.0,0.0,72,0.00,,---,0.00,VWS V14.01,2013-11-12 17:23:00,
2013-11-12 10:28:00,32.9,24.9,30.23,SSW,193,0.0,0.0,72,0.00,,---,0.00,VWS V14.01,2013-11-12 17:28:00,
2013-11-12 10:33:00,33.3,25.6,30.23,SSW,193,0.0,0.0,73,0.00,,---,0.00,VWS V14.01,2013-11-12 17:33:00,
2013-11-12 10:38:00,33.4,25.7,30.23,East,93,0.0,0.0,73,0.00,,---,0.00,VWS V14.01,2013-11-12 17:38:00,
2013-11-12 10:43:00,33.3,25.6,30.23,NE,48,0.0,0.0,73,0.00,,---,0.00,VWS V14.01,2013-11-12 17:43:00,
2013-11-12 10:48:00,33.3,25.6,30.23,NE,48,0.0,0.0,73,0.00,,---,0.00,VWS V14.01,2013-11-12 17:48:00,
2013-11-12 10:53:00,33.4,25.7,30.23,NE,48,0.0,0.0,73,0.00,,---,0.00,VWS V14.01,2013-11-12 17:53:00,
2013-11-12 10:58:00,33.6,25.9,30.23,NNE,17,0.0,0.0,73,0.00,,---,0.00,VWS V14.01,2013-11-12 17:58:00,
2013-11-12 11:03:00,33.6,25.9,30.23,NNE,17,0.0,0.0,73,0.00,,---,0.00,VWS V14.01,2013-11-12 18:03:00,
2013-11-12 11:08:00,33.6,25.9,30.23,NNE,16,0.0,3.6,73,0.00,,---,0.00,VWS V14.01,2013-11-12 18:08:00,
2013-11-12 11:13:00,33.6,25.9,30.23,NNE,16,0.0,3.6,73,0.00,,---,0.00,VWS V14.01,2013-11-12 18:13:00,
2013-11-12 11:18:00,34.2,26.4,30.23,ENE,61,0.0,2.7,73,0.00,,---,0.00,VWS V14.01,2013-11-12 18:18:00,
2013-11-12 11:23:00,34.5,26.8,30.23,ENE,61,0.0,2.7,73,0.00,,---,0.00,VWS V14.01,2013-11-12 18:23:00,
2013-11-12 11:28:00,35.1,27.3,30.23,NE,46,0.0,2.7,73,0.00,,---,0.00,VWS V14.01,2013-11-12 18:28:00,
2013-11-12 11:33:00,35.4,27.6,30.23,NE,42,0.0,0.0,73,0.00,,---,0.00,VWS V14.01,2013-11-12 18:33:00,
2013-11-12 11:38:00,35.6,27.5,30.23,North,0,3.6,3.6,72,0.00,,---,0.00,VWS V14.01,2013-11-12 18:38:00,
2013-11-12 11:43:00,35.8,27.3,30.23,NE,46,0.0,3.6,71,0.00,,---,0.00,VWS V14.01,2013-11-12 18:43:00,
2013-11-12 11:48:00,35.6,26.8,30.23,NE,37,0.0,0.0,70,0.00,,---,0.00,VWS V14.01,2013-11-12 18:48:00,
2013-11-12 11:53:00,35.6,26.8,30.23,NE,48,0.0,0.0,70,0.00,,---,0.00,VWS V14.01,2013-11-12 18:53:00,
2013-11-12 11:58:00,35.6,26.8,30.23,North,0,2.7,2.7,70,0.00,,---,0.00,VWS V14.01,2013-11-12 18:58:00,
2013-11-12 12:03:00,35.6,26.5,30.23,NNE,16,0.0,3.1,69,0.00,,---,0.00,VWS V14.01,2013-11-12 19:03:00,
2013-11-12 12:08:00,35.6,26.5,30.23,NE,45,0.0,3.6,69,0.00,,---,0.00,VWS V14.01,2013-11-12 19:08:00,
2013-11-12 12:13:00,35.4,25.9,30.23,North,357,2.7,4.0,68,0.00,,---,0.00,VWS V14.01,2013-11-12 19:13:00,
2013-11-12 12:18:00,35.1,25.6,30.23,North,7,2.2,2.2,68,0.00,,---,0.00,VWS V14.01,2013-11-12 19:18:00,
2013-11-12 12:23:00,35.4,26.3,30.23,North,357,0.0,3.1,69,0.00,,---,0.00,VWS V14.01,2013-11-12 19:23:00,
2013-11-12 12:28:00,35.8,26.6,30.23,North,353,2.7,3.1,69,0.00,,---,0.00,VWS V14.01,2013-11-12 19:28:00,
2013-11-12 12:33:00,36.5,27.7,30.23,ENE,58,0.0,2.2,70,0.00,,---,0.00,VWS V14.01,2013-11-12 19:33:00,
2013-11-12 12:38:00,37.4,28.5,30.23,NE,40,0.0,2.2,70,0.00,,---,0.00,VWS V14.01,2013-11-12 19:38:00,
2013-11-12 12:43:00,37.6,28.0,30.23,NE,40,0.0,2.2,68,0.00,,---,0.00,VWS V14.01,2013-11-12 19:43:00,
2013-11-12 12:48:00,38.1,28.5,30.23,ENE,64,0.0,3.1,68,0.00,,---,0.00,VWS V14.01,2013-11-12 19:48:00,
2013-11-12 12:53:00,37.8,27.4,30.20,ENE,62,0.0,3.1,66,0.00,,---,0.00,VWS V14.01,2013-11-12 19:53:00,
2013-11-12 12:58:00,38.5,28.9,30.20,East,84,0.0,3.6,68,0.00,,---,0.00,VWS V14.01,2013-11-12 19:58:00,
2013-11-12 13:03:00,38.8,28.5,30.20,East,84,0.0,0.0,66,0.00,,---,0.00,VWS V14.01,2013-11-12 20:03:00,
2013-11-12 13:08:00,38.8,28.5,30.20,East,81,0.0,0.0,66,0.00,,---,0.00,VWS V14.01,2013-11-12 20:08:00,
2013-11-12 13:13:00,39.4,29.0,30.20,East,81,0.0,0.0,66,0.00,,---,0.00,VWS V14.01,2013-11-12 20:13:00,
2013-11-12 13:18:00,39.7,27.8,30.20,ENE,58,0.0,0.0,62,0.00,,---,0.00,VWS V14.01,2013-11-12 20:18:00,
2013-11-12 13:23:00,40.3,28.7,30.20,ENE,65,0.0,3.6,63,0.00,,---,0.00,VWS V14.01,2013-11-12 20:23:00,
2013-11-12 13:28:00,41.4,30.1,30.20,ENE,65,0.0,3.6,64,0.00,,---,0.00,VWS V14.01,2013-11-12 20:28:00,
2013-11-12 13:33:00,42.8,30.7,30.20,ENE,65,0.0,0.0,62,0.00,,---,0.00,VWS V14.01,2013-11-12 20:33:00,
2013-11-12 13:38:00,43.3,29.6,30.20,ENE,65,0.0,0.0,58,0.00,,---,0.00,VWS V14.01,2013-11-12 20:38:00,
2013-11-12 13:43:00,44.4,29.3,30.20,ENE,65,0.0,0.0,55,0.00,,---,0.00,VWS V14.01,2013-11-12 20:43:00,
2013-11-12 13:48:00,45.9,31.9,30.20,ESE,113,0.0,3.1,58,0.00,,---,0.00,VWS V14.01,2013-11-12 20:48:00,
2013-11-12 13:53:00,45.3,29.2,30.20,East,80,3.1,3.6,53,0.00,,---,0.00,VWS V14.01,2013-11-12 20:53:00,
2013-11-12 13:58:00,44.8,29.2,30.20,SE,127,0.0,3.6,54,0.00,,---,0.00,VWS V14.01,2013-11-12 20:58:00,
2013-11-12 14:03:00,44.2,29.1,30.20,East,85,0.0,4.0,55,0.00,,---,0.00,VWS V14.01,2013-11-12 21:03:00,
2013-11-12 14:08:00,43.0,26.1,30.20,NNE,26,0.0,4.0,51,0.00,,---,0.00,VWS V14.01,2013-11-12 21:08:00,
2013-11-12 14:13:00,43.0,25.6,30.20,NNE,26,0.0,4.0,50,0.00,,---,0.00,VWS V14.01,2013-11-12 21:13:00,
2013-11-12 14:18:00,42.1,24.8,30.20,North,10,0.0,2.7,50,0.00,,---,0.00,VWS V14.01,2013-11-12 21:18:00,
2013-11-12 14:23:00,41.5,24.8,30.20,North,1,0.0,3.1,51,0.00,,---,0.00,VWS V14.01,2013-11-12 21:23:00,
2013-11-12 14:28:00,41.4,24.6,30.20,North,0,0.0,3.1,51,0.00,,---,0.00,VWS V14.01,2013-11-12 21:28:00,
2013-11-12 14:33:00,40.8,24.6,30.20,North,0,0.0,0.0,52,0.00,,---,0.00,VWS V14.01,2013-11-12 21:33:00,
2013-11-12 14:38:00,40.8,24.6,30.20,NE,38,0.0,0.0,52,0.00,,---,0.00,VWS V14.01,2013-11-12 21:38:00,
2013-11-12 14:43:00,40.6,24.9,30.20,NE,38,0.0,0.0,53,0.00,,---,0.00,VWS V14.01,2013-11-12 21:43:00,
2013-11-12 14:48:00,40.8,25.0,30.20,North,9,0.0,3.1,53,0.00,,---,0.00,VWS V14.01,2013-11-12 21:48:00,
2013-11-12 14:53:00,41.0,25.2,30.20,NNW,345,0.0,3.1,53,0.00,,---,0.00,VWS V14.01,2013-11-12 21:53:00,
2013-11-12 14:58:00,41.0,25.2,30.20,NNW,345,0.0,3.1,53,0.00,,---,0.00,VWS V14.01,2013-11-12 21:58:00,
2013-11-12 15:03:00,41.0,25.2,30.20,North,6,0.0,0.0,53,0.00,,---,0.00,VWS V14.01,2013-11-12 22:03:00,
2013-11-12 15:08:00,40.8,25.5,30.20,North,0,0.0,0.0,54,0.00,,---,0.00,VWS V14.01,2013-11-12 22:08:00,
2013-11-12 15:13:00,41.0,25.6,30.20,North,6,0.0,0.0,54,0.00,,---,0.00,VWS V14.01,2013-11-12 22:13:00,
2013-11-12 15:18:00,40.6,25.3,30.20,North,6,0.0,0.0,54,0.00,,---,0.00,VWS V14.01,2013-11-12 22:18:00,
2013-11-12 15:23:00,40.6,25.8,30.20,East,93,0.0,0.0,55,0.00,,---,0.00,VWS V14.01,2013-11-12 22:23:00,
2013-11-12 15:28:00,40.8,25.9,30.20,East,87,0.0,0.0,55,0.00,,---,0.00,VWS V14.01,2013-11-12 22:28:00,
2013-11-12 15:33:00,40.6,25.3,30.20,East,87,0.0,0.0,54,0.00,,---,0.00,VWS V14.01,2013-11-12 22:33:00,
2013-11-12 15:38:00,40.5,25.6,30.20,East,87,0.0,0.0,55,0.00,,---,0.00,VWS V14.01,2013-11-12 22:38:00,
2013-11-12 15:43:00,39.9,24.6,30.20,East,87,0.0,0.0,54,0.00,,---,0.00,VWS V14.01,2013-11-12 22:43:00,
2013-11-12 15:48:00,39.9,25.1,30.20,East,87,0.0,0.0,55,0.00,,---,0.00,VWS V14.01,2013-11-12 22:48:00,
2013-11-12 15:53:00,39.9,25.1,30.20,East,87,0.0,0.0,55,0.00,,---,0.00,VWS V14.01,2013-11-12 22:53:00,
2013-11-12 15:58:00,40.1,25.2,30.20,East,87,0.0,0.0,55,0.00,,---,0.00,VWS V14.01,2013-11-12 22:58:00,
2013-11-12 16:03:00,40.3,25.4,30.20,East,87,0.0,0.0,55,0.00,,---,0.00,VWS V14.01,2013-11-12 23:03:00,
2013-11-12 16:08:00,40.1,25.2,30.20,East,87,0.0,0.0,55,0.00,,---,0.00,VWS V14.01,2013-11-12 23:08:00,
2013-11-12 16:13:00,40.1,25.2,30.20,East,87,0.0,0.0,55,0.00,,---,0.00,VWS V14.01,2013-11-12 23:13:00,
2013-11-12 16:18:00,39.7,24.9,30.20,East,87,0.0,0.0,55,0.00,,---,0.00,VWS V14.01,2013-11-12 23:18:00,
2013-11-12 16:23:00,39.6,24.7,30.20,East,87,0.0,0.0,55,0.00,,---,0.00,VWS V14.01,2013-11-12 23:23:00,
2013-11-12 16:28:00,39.4,24.6,30.20,East,87,0.0,0.0,55,0.00,,---,0.00,VWS V14.01,2013-11-12 23:28:00,
2013-11-12 16:33:00,39.2,24.4,30.20,East,87,0.0,0.0,55,0.00,,---,0.00,VWS V14.01,2013-11-12 23:33:00,
2013-11-12 16:38:00,39.0,24.7,30.20,East,87,0.0,0.0,56,0.00,,---,0.00,VWS V14.01,2013-11-12 23:38:00,
2013-11-12 16:43:00,38.8,24.5,30.20,East,87,0.0,0.0,56,0.00,,---,0.00,VWS V14.01,2013-11-12 23:43:00,
2013-11-12 16:48:00,38.7,24.3,30.20,East,87,0.0,0.0,56,0.00,,---,0.00,VWS V14.01,2013-11-12 23:48:00,
2013-11-12 16:53:00,38.5,24.2,30.20,East,87,0.0,0.0,56,0.00,,---,0.00,VWS V14.01,2013-11-12 23:53:00,
2013-11-12 16:58:00,38.5,24.2,30.20,East,87,0.0,0.0,56,0.00,,---,0.00,VWS V14.01,2013-11-12 23:58:00,
2013-11-12 17:03:00,38.3,24.0,30.20,East,87,0.0,0.0,56,0.00,,---,0.00,VWS V14.01,2013-11-13 00:03:00,
2013-11-12 17:08:00,38.1,24.2,30.20,East,87,0.0,0.0,57,0.00,,---,0.00,VWS V14.01,2013-11-13 00:08:00,
2013-11-12 17:13:00,38.1,24.2,30.20,East,87,0.0,0.0,57,0.00,,---,0.00,VWS V14.01,2013-11-13 00:13:00,
2013-11-12 17:18:00,37.9,24.1,30.20,East,87,0.0,0.0,57,0.00,,---,0.00,VWS V14.01,2013-11-13 00:18:00,
2013-11-12 17:23:00,37.9,24.1,30.20,East,87,0.0,0.0,57,0.00,,---,0.00,VWS V14.01,2013-11-13 00:23:00,
2013-11-12 17:28:00,37.9,24.1,30.20,SW,227,0.0,0.0,57,0.00,,---,0.00,VWS V14.01,2013-11-13 00:28:00,
2013-11-12 17:33:00,37.9,24.1,30.20,SW,227,0.0,0.0,57,0.00,,---,0.00,VWS V14.01,2013-11-13 00:33:00,
2013-11-12 17:38:00,37.9,24.1,30.17,SW,227,0.0,0.0,57,0.00,,---,0.00,VWS V14.01,2013-11-13 00:38:00,
2013-11-12 17:43:00,37.6,23.7,30.17,SW,227,0.0,0.0,57,0.00,,---,0.00,VWS V14.01,2013-11-13 00:43:00,
2013-11-12 17:48:00,37.6,24.2,30.17,SW,227,0.0,0.0,58,0.00,,---,0.00,VWS V14.01,2013-11-13 00:48:00,
2013-11-12 17:53:00,37.4,24.0,30.17,SW,227,0.0,0.0,58,0.00,,---,0.00,VWS V14.01,2013-11-13 00:53:00,
2013-11-12 17:58:00,37.4,24.0,30.17,SW,227,0.0,0.0,58,0.00,,---,0.00,VWS V14.01,2013-11-13 00:58:00,
2013-11-12 18:03:00,37.4,24.0,30.17,SW,227,0.0,0.0,58,0.00,,---,0.00,VWS V14.01,2013-11-13 01:03:00,
2013-11-12 18:08:00,37.0,24.1,30.17,SW,227,0.0,0.0,59,0.00,,---,0.00,VWS V14.01,2013-11-13 01:08:00,
2013-11-12 18:13:00,36.9,23.9,30.17,SW,227,0.0,0.0,59,0.00,,---,0.00,VWS V14.01,2013-11-13 01:13:00,
2013-11-12 18:18:00,36.7,23.7,30.17,SW,227,0.0,0.0,59,0.00,,---,0.00,VWS V14.01,2013-11-13 01:18:00,
2013-11-12 18:23:00,36.3,23.4,30.20,SW,227,0.0,0.0,59,0.00,,---,0.00,VWS V14.01,2013-11-13 01:23:00,
2013-11-12 18:28:00,36.1,23.2,30.20,SW,227,0.0,0.0,59,0.00,,---,0.00,VWS V14.01,2013-11-13 01:28:00,
2013-11-12 18:33:00,35.8,22.9,30.20,SW,227,0.0,0.0,59,0.00,,---,0.00,VWS V14.01,2013-11-13 01:33:00,
2013-11-12 18:38:00,35.6,22.7,30.20,SW,227,0.0,0.0,59,0.00,,---,0.00,VWS V14.01,2013-11-13 01:38:00,
2013-11-12 18:43:00,35.4,22.9,30.20,SW,227,0.0,0.0,60,0.00,,---,0.00,VWS V14.01,2013-11-13 01:43:00,
2013-11-12 18:48:00,35.2,22.8,30.20,SW,227,0.0,0.0,60,0.00,,---,0.00,VWS V14.01,2013-11-13 01:48:00,
2013-11-12 18:53:00,35.4,23.3,30.20,SW,235,0.0,0.0,61,0.00,,---,0.00,VWS V14.01,2013-11-13 01:53:00,
2013-11-12 18:58:00,35.4,22.9,30.20,SW,235,0.0,0.0,60,0.00,,---,0.00,VWS V14.01,2013-11-13 01:58:00,
2013-11-12 19:03:00,35.4,23.3,30.20,SW,235,0.0,0.0,61,0.00,,---,0.00,VWS V14.01,2013-11-13 02:03:00,
2013-11-12 19:08:00,35.4,23.3,30.20,SW,235,0.0,0.0,61,0.00,,---,0.00,VWS V14.01,2013-11-13 02:08:00,
2013-11-12 19:13:00,35.4,23.3,30.20,SW,235,0.0,0.0,61,0.00,,---,0.00,VWS V14.01,2013-11-13 02:13:00,
2013-11-12 19:18:00,35.4,23.3,30.20,SW,235,0.0,0.0,61,0.00,,---,0.00,VWS V14.01,2013-11-13 02:18:00,
2013-11-12 19:23:00,35.6,23.9,30.20,WSW,250,0.0,2.2,62,0.00,,---,0.00,VWS V14.01,2013-11-13 02:23:00,
2013-11-12 19:28:00,35.8,24.0,30.20,WSW,250,0.0,2.2,62,0.00,,---,0.00,VWS V14.01,2013-11-13 02:28:00,
2013-11-12 19:33:00,35.8,24.0,30.20,WSW,250,0.0,0.0,62,0.00,,---,0.00,VWS V14.01,2013-11-13 02:33:00,
2013-11-12 19:38:00,35.8,24.0,30.20,WSW,250,0.0,0.0,62,0.00,,---,0.00,VWS V14.01,2013-11-13 02:38:00,
2013-11-12 19:43:00,35.8,24.4,30.20,WSW,250,0.0,0.0,63,0.00,,---,0.00,VWS V14.01,2013-11-13 02:43:00,
2013-11-12 19:48:00,35.8,24.8,30.20,WSW,250,0.0,0.0,64,0.00,,---,0.00,VWS V14.01,2013-11-13 02:48:00,
2013-11-12 19:53:00,35.6,24.3,30.20,WSW,250,0.0,0.0,63,0.00,,---,0.00,VWS V14.01,2013-11-13 02:53:00,
2013-11-12 19:58:00,35.6,24.3,30.20,WSW,239,0.0,0.0,63,0.00,,---,0.00,VWS V14.01,2013-11-13 02:58:00,
2013-11-12 20:03:00,35.6,24.3,30.20,WSW,239,0.0,0.0,63,0.00,,---,0.00,VWS V14.01,2013-11-13 03:03:00,
2013-11-12 20:07:00,35.4,24.5,30.20,WSW,239,0.0,0.0,64,0.00,,---,0.00,VWS V14.01,2013-11-13 03:07:00,
2013-11-12 20:12:00,35.4,24.5,30.20,WSW,239,0.0,0.0,64,0.00,,---,0.00,VWS V14.01,2013-11-13 03:12:00,
2013-11-12 20:17:00,35.4,24.5,30.20,SW,229,0.0,0.0,64,0.00,,---,0.00,VWS V14.01,2013-11-13 03:17:00,
2013-11-12 20:22:00,35.4,24.5,30.20,SW,229,0.0,0.0,64,0.00,,---,0.00,VWS V14.01,2013-11-13 03:22:00,
2013-11-12 20:27:00,35.4,24.5,30.20,South,176,0.0,2.7,64,0.00,,---,0.00,VWS V14.01,2013-11-13 03:27:00,
2013-11-12 20:32:00,35.4,24.5,30.20,South,176,0.0,0.0,64,0.00,,---,0.00,VWS V14.01,2013-11-13 03:32:00,
2013-11-12 20:37:00,35.4,24.5,30.17,South,176,0.0,0.0,64,0.00,,---,0.00,VWS V14.01,2013-11-13 03:37:00,
2013-11-12 20:42:00,35.4,24.5,30.17,South,176,0.0,0.0,64,0.00,,---,0.00,VWS V14.01,2013-11-13 03:42:00,
2013-11-12 20:47:00,35.6,25.0,30.17,SW,218,0.0,0.0,65,0.00,,---,0.00,VWS V14.01,2013-11-13 03:47:00,
2013-11-12 20:52:00,35.8,25.2,30.17,SW,218,0.0,0.0,65,0.00,,---,0.00,VWS V14.01,2013-11-13 03:52:00,
2013-11-12 20:57:00,35.8,25.2,30.20,SW,218,0.0,0.0,65,0.00,,---,0.00,VWS V14.01,2013-11-13 03:57:00,
2013-11-12 21:02:00,35.8,25.5,30.20,SW,218,0.0,0.0,66,0.00,,---,0.00,VWS V14.01,2013-11-13 04:02:00,
2013-11-12 21:07:00,35.8,25.5,30.20,SW,218,0.0,0.0,66,0.00,,---,0.00,VWS V14.01,2013-11-13 04:07:00,
2013-11-12 21:12:00,35.8,25.5,30.20,SW,218,0.0,0.0,66,0.00,,---,0.00,VWS V14.01,2013-11-13 04:12:00,
2013-11-12 21:17:00,35.8,25.5,30.20,SW,218,0.0,0.0,66,0.00,,---,0.00,VWS V14.01,2013-11-13 04:17:00,
2013-11-12 21:22:00,35.8,25.9,30.20,ESE,103,0.0,0.0,67,0.00,,---,0.00,VWS V14.01,2013-11-13 04:22:00,
2013-11-12 21:27:00,35.8,25.9,30.20,East,82,0.0,0.0,67,0.00,,---,0.00,VWS V14.01,2013-11-13 04:27:00,
2013-11-12 21:32:00,36.0,26.1,30.20,East,82,0.0,0.0,67,0.00,,---,0.00,VWS V14.01,2013-11-13 04:32:00,
2013-11-12 21:37:00,36.0,26.1,30.20,East,82,0.0,0.0,67,0.00,,---,0.00,VWS V14.01,2013-11-13 04:37:00,
2013-11-12 21:42:00,36.0,26.1,30.20,East,82,0.0,0.0,67,0.00,,---,0.00,VWS V14.01,2013-11-13 04:42:00,
2013-11-12 21:47:00,36.0,26.1,30.20,East,82,0.0,0.0,67,0.00,,---,0.00,VWS V14.01,2013-11-13 04:47:00,
2013-11-12 21:52:00,35.8,25.9,30.20,East,82,0.0,0.0,67,0.00,,---,0.00,VWS V14.01,2013-11-13 04:52:00,
2013-11-12 21:57:00,36.0,26.4,30.20,East,82,0.0,0.0,68,0.00,,---,0.00,VWS V14.01,2013-11-13 04:57:00,
2013-11-12 22:01:00,36.0,26.8,30.20,East,79,0.0,0.0,69,0.00,,---,0.00,VWS V14.01,2013-11-13 05:01:00,
2013-11-12 22:02:00,36.0,26.8,30.20,East,79,0.0,0.0,69,0.00,,---,0.00,VWS V14.01,2013-11-13 05:02:00,
2013-11-12 22:07:00,36.0,26.8,30.20,SE,131,0.0,3.1,69,0.00,,---,0.00,VWS V14.01,2013-11-13 05:07:00,
2013-11-12 22:12:00,36.0,27.1,30.20,NE,55,0.0,3.1,70,0.00,,---,0.00,VWS V14.01,2013-11-13 05:12:00,
2013-11-12 22:17:00,36.0,27.1,30.20,North,357,2.2,3.6,70,0.00,,---,0.00,VWS V14.01,2013-11-13 05:17:00,
2013-11-12 22:22:00,35.8,27.0,30.20,North,0,0.0,3.6,70,0.00,,---,0.00,VWS V14.01,2013-11-13 05:22:00,
2013-11-12 22:27:00,35.8,27.0,30.20,East,85,0.0,3.6,70,0.00,,---,0.00,VWS V14.01,2013-11-13 05:27:00,
2013-11-12 22:31:00,35.6,26.8,30.20,East,85,0.0,0.0,70,0.00,,---,0.00,VWS V14.01,2013-11-13 05:31:00,
2013-11-12 22:36:00,35.4,26.6,30.20,East,85,0.0,0.0,70,0.00,,---,0.00,VWS V14.01,2013-11-13 05:36:00,
2013-11-12 22:41:00,35.4,26.6,30.20,East,85,0.0,0.0,70,0.00,,---,0.00,VWS V14.01,2013-11-13 05:41:00,
2013-11-12 22:46:00,35.1,26.3,30.20,East,85,0.0,0.0,70,0.00,,---,0.00,VWS V14.01,2013-11-13 05:46:00,
2013-11-12 22:51:00,34.9,26.1,30.20,South,191,3.6,4.9,70,0.00,,---,0.00,VWS V14.01,2013-11-13 05:51:00,
2013-11-12 22:56:00,35.1,26.3,30.20,SSE,167,0.0,4.9,70,0.00,,---,0.00,VWS V14.01,2013-11-13 05:56:00,
2013-11-12 23:01:00,35.1,26.3,30.20,SSE,167,0.0,0.0,70,0.00,,---,0.00,VWS V14.01,2013-11-13 06:01:00,
2013-11-12 23:06:00,35.1,26.3,30.20,SSE,167,0.0,0.0,70,0.00,,---,0.00,VWS V14.01,2013-11-13 06:06:00,
2013-11-12 23:11:00,35.1,26.3,30.20,SSW,212,0.0,0.0,70,0.00,,---,0.00,VWS V14.01,2013-11-13 06:11:00,
2013-11-12 23:16:00,35.2,26.5,30.20,ESE,123,0.0,2.2,70,0.00,,---,0.00,VWS V14.01,2013-11-13 06:16:00,
2013-11-12 23:21:00,35.2,26.5,30.20,South,175,0.0,2.2,70,0.00,,---,0.00,VWS V14.01,2013-11-13 06:21:00,
2013-11-12 23:26:00,35.2,26.5,30.20,South,175,0.0,2.2,70,0.00,,---,0.00,VWS V14.01,2013-11-13 06:26:00,
2013-11-12 23:31:00,35.2,26.5,30.20,South,176,0.0,0.0,70,0.00,,---,0.00,VWS V14.01,2013-11-13 06:31:00,
2013-11-12 23:36:00,36.0,27.5,30.20,SSE,150,0.0,3.1,71,0.00,,---,0.00,VWS V14.01,2013-11-13 06:36:00,
2013-11-12 23:41:00,36.5,28.0,30.20,SSE,150,0.0,3.1,71,0.00,,---,0.00,VWS V14.01,2013-11-13 06:41:00,
2013-11-12 23:46:00,36.7,27.8,30.20,South,185,0.0,0.0,70,0.00,,---,0.00,VWS V14.01,2013-11-13 06:46:00,
2013-11-12 23:51:00,36.7,27.8,30.20,South,185,0.0,0.0,70,0.00,,---,0.00,VWS V14.01,2013-11-13 06:51:00,
2013-11-12 23:56:00,36.7,27.8,30.20,South,185,0.0,0.0,70,0.00,,---,0.00,VWS V14.01,2013-11-13 06:56:00,